Showing default

AURORA 1, 2876

Orbit data source: Space-Track

AURORA 1, 2876 is an American payload satellite in LEO that was launched on Thu, 29 Jun 1967 UTC via a THOR BURNER 2 launch vehicle from the Air Force Western Test Range (AFWTR). Payload-class satellites include a variety of spacecraft equipped with specific instruments for various scientific and technological missions. These include communications satellites like Starlink; space stations such as the ISS; scientific satellites like the Hubble; Earth observation satellites from companies like Planet Labs, Umbra, and HawkEye 360; GPS; miniature CubeSats for education and research; and military/defense satellites.

Loading next visibility...
Identifier
2876, 1967-065B
Orbit
LEO
Country
Flag of USUS
Related business
Manufacturer
Rice
Mission
Spacecraft
Bus & Motor
RICE AURORA, Unknown motor
Mass
21 kg wet, 21 kg dry
Launch date (UTC)
1967-06-29 (58 years ago)
Launch vehicle
THOR BURNER 2
Launch site
Air Force Western Test Range (AFWTR)
Object type
Payload
Rocket body
Debris
Shape & HBR
Unknown
Radar Cross Section
Medium (>0.1 m² and <1 m²)

Expand to show TLE details & history
Last TLE update: 2 days ago

TLE from 2 days ago
0 AURORA 1
1  2876U 67065B   25308.46831045  .00000001  00000-0 -49105-3 0  9990
2  2876  89.9866 313.4362 0070867 318.8570  40.6938  8.36560546370815
Epoch: 2025-11-04T11:14Z
TLE epoch observation values (Epoch: 2025-11-04T11:14:22.022Z)
Latitude
-0.00002°
Longitude
100.88954°
Altitude
3,819.457 km
Speed
6.269 km/s
True Right ascension
20h 53m 44s
True Declination
0° 00' 00"
Sunlit
Object was in daylight at epoch
Visualization orbit readout
Latitude
Unknown
Longitude
Unknown
Altitude
Unknown
Speed
Unknown
Apparent Right ascension
Unknown
Apparent Declination
Unknown
Sunlit
N/A
Visualization observer readout
Local Sidereal Time
07:41:39
Azimuth
Unknown
Elevation
Unknown
Doppler factor
Unknown
Orbital elements
Apogee altitude
3,942.655 km
Perigee altitude
3,797.404 km
Semi-major axis
10,248.166 km
Eccentricity
0.00709
Inclination
89.9866°
RAAN
313.4362°
Arg. of periapsis
318.857°
True anomaly
41.22686°
Mean anomaly
40.6938°
Eccentric anomaly
40.95997°
Mean motion
2.09206 °/min
Orbital period
172.08 mins
BSTAR
-0.00049105
Loading maneuver chart data...
Computing Atmospheric mass density...
Loading historical data...
Loading historical data...
Loading historical data...
Loading historical data...
Loading historical data...
Loading historical data...
Loading historical data...
Other satellites on launch #65 in the year 1967 (1967-06-29 UTC)

Documentation

Showing up to 5 results
|